Time,TemperatureF,DewpointF,PressureIn,WindDirection,WindDirectionDegrees,WindSpeedMPH,WindSpeedGustMPH,Humidity,HourlyPrecipIn,Conditions,Clouds,dailyrainin,SoftwareType,DateUTC
2013-04-30 00:02:00,26.0,24.0,-100.00,SE,135,0.0,2.0,92,0.00,,,0.00,,2013-04-30 08:02:00,
2013-04-30 00:11:00,26.0,24.0,-100.00,SE,135,0.0,2.0,92,0.00,,,0.00,,2013-04-30 08:11:00,
2013-04-30 00:21:00,26.0,24.0,-100.00,West,260,1.0,2.0,93,0.00,,,0.00,,2013-04-30 08:21:00,
2013-04-30 00:32:00,26.0,24.0,-100.00,West,260,1.0,2.0,93,0.00,,,0.00,,2013-04-30 08:32:00,
2013-04-30 00:42:00,26.0,24.0,-100.00,West,260,1.0,2.0,93,0.00,,,0.00,,2013-04-30 08:42:00,
2013-04-30 00:51:00,26.0,24.0,-100.00,SSW,195,1.0,4.0,93,0.00,,,0.00,,2013-04-30 08:51:00,
2013-04-30 01:01:00,26.0,24.0,-100.00,SSW,195,1.0,4.0,93,0.00,,,0.00,,2013-04-30 09:01:00,
2013-04-30 01:11:00,26.0,24.0,-100.00,SSW,195,1.0,4.0,93,0.00,,,0.00,,2013-04-30 09:11:00,
2013-04-30 01:21:00,25.0,24.0,-100.00,SW,220,2.0,4.0,93,0.00,,,0.00,,2013-04-30 09:21:00,
2013-04-30 01:33:00,25.0,24.0,-100.00,SW,220,2.0,4.0,93,0.00,,,0.00,,2013-04-30 09:33:00,
2013-04-30 01:43:00,25.0,24.0,-100.00,SW,220,2.0,4.0,93,0.00,,,0.00,,2013-04-30 09:43:00,
2013-04-30 01:52:00,25.0,24.0,-100.00,SW,220,1.0,3.0,94,0.00,,,0.00,,2013-04-30 09:52:00,
2013-04-30 02:03:00,25.0,24.0,-100.00,SW,220,1.0,3.0,94,0.00,,,0.00,,2013-04-30 10:03:00,
2013-04-30 02:11:00,25.0,24.0,-100.00,SW,220,1.0,3.0,94,0.00,,,0.00,,2013-04-30 10:11:00,
2013-04-30 02:22:00,25.0,24.0,-100.00,SW,220,1.0,4.0,94,0.00,,,0.00,,2013-04-30 10:22:00,
2013-04-30 02:32:00,25.0,24.0,-100.00,SW,220,1.0,4.0,94,0.00,,,0.00,,2013-04-30 10:32:00,
2013-04-30 02:41:00,25.0,24.0,-100.00,SW,220,1.0,4.0,94,0.00,,,0.00,,2013-04-30 10:41:00,
2013-04-30 02:52:00,25.0,24.0,-100.00,South,185,1.0,4.0,94,0.00,,,0.00,,2013-04-30 10:52:00,
2013-04-30 03:01:00,25.0,24.0,-100.00,South,185,1.0,4.0,94,0.00,,,0.00,,2013-04-30 11:01:00,
2013-04-30 03:11:00,25.0,24.0,-100.00,South,185,1.0,4.0,94,0.00,,,0.00,,2013-04-30 11:11:00,
2013-04-30 03:21:00,25.0,24.0,-100.00,South,185,1.0,3.0,94,0.00,,,0.00,,2013-04-30 11:21:00,
2013-04-30 03:31:00,25.0,24.0,-100.00,South,185,1.0,3.0,94,0.00,,,0.00,,2013-04-30 11:31:00,
2013-04-30 03:42:00,25.0,24.0,-100.00,South,185,1.0,3.0,94,0.00,,,0.00,,2013-04-30 11:42:00,
2013-04-30 03:51:00,25.0,24.0,-100.00,SSE,165,3.0,6.0,94,0.00,,,0.00,,2013-04-30 11:51:00,
2013-04-30 04:01:00,25.0,24.0,-100.00,SSE,165,3.0,6.0,94,0.00,,,0.00,,2013-04-30 12:01:00,
2013-04-30 04:11:00,25.0,24.0,-100.00,SSE,165,3.0,6.0,94,0.00,,,0.00,,2013-04-30 12:11:00,
2013-04-30 04:21:00,25.0,24.0,-100.00,SSE,160,3.0,5.0,94,0.00,,,0.00,,2013-04-30 12:21:00,
2013-04-30 04:31:00,25.0,24.0,-100.00,SSE,160,3.0,5.0,94,0.00,,,0.00,,2013-04-30 12:31:00,
2013-04-30 04:41:00,25.0,24.0,-100.00,SSE,160,3.0,5.0,94,0.00,,,0.00,,2013-04-30 12:41:00,
2013-04-30 04:51:00,25.0,24.0,-100.00,South,180,4.0,6.0,93,0.00,,,0.00,,2013-04-30 12:51:00,
2013-04-30 05:01:00,25.0,24.0,-100.00,South,180,4.0,6.0,93,0.00,,,0.00,,2013-04-30 13:01:00,
2013-04-30 05:11:00,25.0,24.0,-100.00,South,180,4.0,6.0,93,0.00,,,0.00,,2013-04-30 13:11:00,
2013-04-30 05:21:00,25.0,23.0,-100.00,SW,215,2.0,6.0,93,0.00,,,0.00,,2013-04-30 13:21:00,
2013-04-30 05:31:00,25.0,23.0,-100.00,SW,215,2.0,6.0,93,0.00,,,0.00,,2013-04-30 13:31:00,
2013-04-30 05:41:00,25.0,23.0,-100.00,SW,215,2.0,6.0,93,0.00,,,0.00,,2013-04-30 13:41:00,
2013-04-30 05:51:00,25.0,23.0,-100.00,SSW,205,3.0,6.0,93,0.00,,,0.00,,2013-04-30 13:51:00,
2013-04-30 06:02:00,25.0,23.0,-100.00,SSW,205,3.0,6.0,93,0.00,,,0.00,,2013-04-30 14:02:00,
2013-04-30 06:11:00,25.0,23.0,-100.00,SSW,205,3.0,6.0,93,0.00,,,0.00,,2013-04-30 14:11:00,
2013-04-30 06:21:00,24.0,23.0,-100.00,SW,215,3.0,7.0,93,0.00,,,0.00,,2013-04-30 14:21:00,
2013-04-30 06:31:00,24.0,23.0,-100.00,SW,215,3.0,7.0,93,0.00,,,0.00,,2013-04-30 14:31:00,
2013-04-30 06:41:00,24.0,23.0,-100.00,SW,215,3.0,7.0,93,0.00,,,0.00,,2013-04-30 14:41:00,
2013-04-30 06:52:00,24.0,23.0,-100.00,South,185,2.0,4.0,93,0.00,,,0.00,,2013-04-30 14:52:00,
2013-04-30 07:01:00,24.0,23.0,-100.00,South,185,2.0,4.0,93,0.00,,,0.00,,2013-04-30 15:01:00,
2013-04-30 07:11:00,24.0,23.0,-100.00,South,185,2.0,4.0,93,0.00,,,0.00,,2013-04-30 15:11:00,
2013-04-30 07:21:00,25.0,23.0,-100.00,SSW,200,3.0,6.0,93,0.00,,,0.00,,2013-04-30 15:21:00,
2013-04-30 07:32:00,25.0,23.0,-100.00,SSW,200,3.0,6.0,93,0.00,,,0.00,,2013-04-30 15:32:00,
2013-04-30 07:42:00,25.0,23.0,-100.00,SSW,200,3.0,6.0,93,0.00,,,0.00,,2013-04-30 15:42:00,
2013-04-30 07:52:00,25.0,23.0,-100.00,SSW,195,4.0,7.0,93,0.00,,,0.00,,2013-04-30 15:52:00,
2013-04-30 08:02:00,25.0,23.0,-100.00,SSW,195,4.0,7.0,93,0.00,,,0.00,,2013-04-30 16:02:00,
2013-04-30 08:12:00,25.0,23.0,-100.00,SSW,195,4.0,7.0,93,0.00,,,0.00,,2013-04-30 16:12:00,
2013-04-30 08:22:00,25.0,23.0,-100.00,SSW,195,4.0,9.0,93,0.00,,,0.00,,2013-04-30 16:22:00,
2013-04-30 08:33:00,25.0,23.0,-100.00,SSW,195,4.0,9.0,93,0.00,,,0.00,,2013-04-30 16:33:00,
2013-04-30 08:42:00,25.0,23.0,-100.00,SSW,195,4.0,9.0,93,0.00,,,0.00,,2013-04-30 16:42:00,
2013-04-30 08:52:00,25.0,24.0,-100.00,South,190,4.0,9.0,93,0.00,,,0.00,,2013-04-30 16:52:00,
2013-04-30 09:02:00,25.0,24.0,-100.00,South,190,4.0,9.0,93,0.00,,,0.00,,2013-04-30 17:02:00,
2013-04-30 09:12:00,25.0,24.0,-100.00,South,190,4.0,9.0,93,0.00,,,0.00,,2013-04-30 17:12:00,
2013-04-30 09:22:00,26.0,24.0,-100.00,SSW,200,4.0,7.0,93,0.00,,,0.00,,2013-04-30 17:22:00,
2013-04-30 09:32:00,26.0,24.0,-100.00,SSW,200,4.0,7.0,93,0.00,,,0.00,,2013-04-30 17:32:00,
2013-04-30 09:42:00,26.0,24.0,-100.00,SSW,200,4.0,7.0,93,0.00,,,0.00,,2013-04-30 17:42:00,
2013-04-30 09:52:00,26.0,24.0,-100.00,South,190,4.0,8.0,93,0.00,,,0.00,,2013-04-30 17:52:00,
2013-04-30 10:01:00,26.0,24.0,-100.00,South,190,4.0,8.0,93,0.00,,,0.00,,2013-04-30 18:01:00,
2013-04-30 10:11:00,26.0,24.0,-100.00,South,190,4.0,8.0,93,0.00,,,0.00,,2013-04-30 18:11:00,
2013-04-30 10:22:00,27.0,25.0,-100.00,South,185,2.0,6.0,93,0.00,,,0.00,,2013-04-30 18:22:00,
2013-04-30 10:32:00,27.0,25.0,-100.00,South,185,2.0,6.0,93,0.00,,,0.00,,2013-04-30 18:32:00,
2013-04-30 10:41:00,27.0,25.0,-100.00,South,185,2.0,6.0,93,0.00,,,0.00,,2013-04-30 18:41:00,
2013-04-30 10:51:00,27.0,25.0,-100.00,SSW,205,3.0,5.0,92,0.00,,,0.00,,2013-04-30 18:51:00,
2013-04-30 11:01:00,27.0,25.0,-100.00,SSW,205,3.0,5.0,92,0.00,,,0.00,,2013-04-30 19:01:00,
2013-04-30 11:11:00,27.0,25.0,-100.00,SSW,205,3.0,5.0,92,0.00,,,0.00,,2013-04-30 19:11:00,
2013-04-30 11:21:00,28.0,26.0,-100.00,SW,220,4.0,6.0,90,0.01,,,0.01,,2013-04-30 19:21:00,
2013-04-30 11:32:00,28.0,26.0,-100.00,SW,220,4.0,6.0,90,0.01,,,0.01,,2013-04-30 19:32:00,
2013-04-30 11:41:00,28.0,26.0,-100.00,SW,220,4.0,6.0,90,0.01,,,0.01,,2013-04-30 19:41:00,
2013-04-30 11:52:00,29.0,26.0,-100.00,SSW,195,2.0,6.0,87,0.01,,,0.01,,2013-04-30 19:52:00,
2013-04-30 12:02:00,29.0,26.0,-100.00,SSW,195,2.0,6.0,87,0.01,,,0.01,,2013-04-30 20:02:00,
2013-04-30 12:11:00,29.0,26.0,-100.00,SSW,195,2.0,6.0,87,0.01,,,0.01,,2013-04-30 20:11:00,
2013-04-30 12:21:00,30.0,25.0,-100.00,South,175,2.0,4.0,82,0.00,,,0.01,,2013-04-30 20:21:00,
2013-04-30 12:32:00,30.0,25.0,-100.00,South,175,2.0,4.0,82,0.00,,,0.01,,2013-04-30 20:32:00,
2013-04-30 12:42:00,30.0,25.0,-100.00,South,175,2.0,4.0,82,0.00,,,0.01,,2013-04-30 20:42:00,
2013-04-30 12:52:00,30.0,25.0,-100.00,SW,220,2.0,6.0,79,0.00,,,0.01,,2013-04-30 20:52:00,
2013-04-30 13:01:00,30.0,25.0,-100.00,SW,220,2.0,6.0,79,0.00,,,0.01,,2013-04-30 21:01:00,
2013-04-30 13:11:00,30.0,25.0,-100.00,SW,220,2.0,6.0,79,0.00,,,0.01,,2013-04-30 21:11:00,
2013-04-30 13:22:00,32.0,24.0,-100.00,West,275,1.0,5.0,73,0.00,,,0.01,,2013-04-30 21:22:00,
2013-04-30 13:32:00,32.0,24.0,-100.00,West,275,1.0,5.0,73,0.00,,,0.01,,2013-04-30 21:32:00,
2013-04-30 13:42:00,32.0,24.0,-100.00,West,275,1.0,5.0,73,0.00,,,0.01,,2013-04-30 21:42:00,
2013-04-30 13:52:00,31.0,23.0,-100.00,WSW,255,2.0,4.0,73,0.00,,,0.01,,2013-04-30 21:52:00,
2013-04-30 14:02:00,31.0,23.0,-100.00,WSW,255,2.0,4.0,73,0.00,,,0.01,,2013-04-30 22:02:00,
2013-04-30 14:12:00,31.0,23.0,-100.00,WSW,255,2.0,4.0,73,0.00,,,0.01,,2013-04-30 22:12:00,
2013-04-30 14:22:00,32.0,25.0,-100.00,SW,215,3.0,6.0,74,0.00,,,0.01,,2013-04-30 22:22:00,
2013-04-30 14:32:00,32.0,25.0,-100.00,SW,215,3.0,6.0,74,0.00,,,0.01,,2013-04-30 22:32:00,
2013-04-30 14:41:00,32.0,25.0,-100.00,SW,215,3.0,6.0,74,0.00,,,0.01,,2013-04-30 22:41:00,
2013-04-30 14:52:00,29.0,24.0,-100.00,West,275,4.0,8.0,79,0.00,,,0.01,,2013-04-30 22:52:00,
2013-04-30 15:02:00,29.0,24.0,-100.00,West,275,4.0,8.0,79,0.00,,,0.01,,2013-04-30 23:02:00,
2013-04-30 15:11:00,29.0,24.0,-100.00,West,275,4.0,8.0,79,0.00,,,0.01,,2013-04-30 23:11:00,
2013-04-30 15:21:00,30.0,25.0,-100.00,WNW,285,4.0,7.0,80,0.00,,,0.01,,2013-04-30 23:21:00,
2013-04-30 15:32:00,30.0,25.0,-100.00,WNW,285,4.0,7.0,80,0.00,,,0.01,,2013-04-30 23:32:00,
2013-04-30 15:42:00,30.0,25.0,-100.00,WNW,285,4.0,7.0,80,0.00,,,0.01,,2013-04-30 23:42:00,
2013-04-30 15:52:00,31.0,25.0,-100.00,NW,320,3.0,7.0,77,0.00,,,0.01,,2013-04-30 23:52:00,
2013-04-30 16:01:00,31.0,25.0,-100.00,NW,320,3.0,7.0,77,0.00,,,0.01,,2013-05-01 00:01:00,
2013-04-30 16:11:00,31.0,25.0,-100.00,NW,320,3.0,7.0,77,0.00,,,0.01,,2013-05-01 00:11:00,
2013-04-30 16:21:00,31.0,23.0,-100.00,North,0,2.0,8.0,72,0.00,,,0.01,,2013-05-01 00:21:00,
2013-04-30 16:32:00,31.0,23.0,-100.00,North,0,2.0,8.0,72,0.00,,,0.01,,2013-05-01 00:32:00,
2013-04-30 16:42:00,31.0,23.0,-100.00,North,0,2.0,8.0,72,0.00,,,0.01,,2013-05-01 00:42:00,
2013-04-30 16:51:00,32.0,23.0,-100.00,NNW,330,1.0,9.0,68,0.00,,,0.01,,2013-05-01 00:51:00,
2013-04-30 17:01:00,32.0,23.0,-100.00,NNW,330,1.0,9.0,68,0.00,,,0.01,,2013-05-01 01:01:00,
2013-04-30 17:11:00,32.0,23.0,-100.00,NNW,330,1.0,9.0,68,0.00,,,0.01,,2013-05-01 01:11:00,
2013-04-30 17:21:00,31.0,23.0,-100.00,NNW,340,2.0,9.0,72,0.01,,,0.02,,2013-05-01 01:21:00,
2013-04-30 17:31:00,31.0,23.0,-100.00,NNW,340,2.0,9.0,72,0.01,,,0.02,,2013-05-01 01:31:00,
2013-04-30 17:41:00,31.0,23.0,-100.00,NNW,340,2.0,9.0,72,0.01,,,0.02,,2013-05-01 01:41:00,
2013-04-30 17:52:00,30.0,24.0,-100.00,NW,315,4.0,7.0,79,0.01,,,0.02,,2013-05-01 01:52:00,
2013-04-30 18:02:00,30.0,24.0,-100.00,NW,315,4.0,7.0,79,0.01,,,0.02,,2013-05-01 02:02:00,
2013-04-30 18:11:00,30.0,24.0,-100.00,NW,315,4.0,7.0,79,0.01,,,0.02,,2013-05-01 02:11:00,
2013-04-30 18:21:00,29.0,25.0,-100.00,NNW,345,2.0,6.0,85,0.00,,,0.02,,2013-05-01 02:21:00,
2013-04-30 18:32:00,29.0,25.0,-100.00,NNW,345,2.0,6.0,85,0.00,,,0.02,,2013-05-01 02:32:00,
2013-04-30 18:42:00,29.0,25.0,-100.00,NNW,345,2.0,6.0,85,0.00,,,0.02,,2013-05-01 02:42:00,
2013-04-30 18:51:00,29.0,26.0,-100.00,NE,45,2.0,7.0,87,0.00,,,0.02,,2013-05-01 02:51:00,
2013-04-30 19:01:00,29.0,26.0,-100.00,NE,45,2.0,7.0,87,0.00,,,0.02,,2013-05-01 03:01:00,
2013-04-30 19:11:00,29.0,26.0,-100.00,NE,45,2.0,7.0,87,0.00,,,0.02,,2013-05-01 03:11:00,
2013-04-30 19:21:00,28.0,25.0,-100.00,NNW,345,3.0,6.0,88,0.00,,,0.02,,2013-05-01 03:21:00,
2013-04-30 19:33:00,28.0,25.0,-100.00,NNW,345,3.0,6.0,88,0.00,,,0.02,,2013-05-01 03:33:00,
2013-04-30 19:42:00,28.0,25.0,-100.00,NNW,345,3.0,6.0,88,0.00,,,0.02,,2013-05-01 03:42:00,
2013-04-30 19:52:00,28.0,25.0,-100.00,NNW,330,2.0,3.0,87,0.00,,,0.02,,2013-05-01 03:52:00,
2013-04-30 20:03:00,28.0,25.0,-100.00,NNW,330,2.0,3.0,87,0.00,,,0.02,,2013-05-01 04:03:00,
2013-04-30 20:12:00,28.0,25.0,-100.00,NNW,330,2.0,3.0,87,0.00,,,0.02,,2013-05-01 04:12:00,
2013-04-30 20:22:00,28.0,24.0,-100.00,NNE,15,1.0,2.0,84,0.00,,,0.02,,2013-05-01 04:22:00,
2013-04-30 20:32:00,28.0,24.0,-100.00,NNE,15,1.0,2.0,84,0.00,,,0.02,,2013-05-01 04:32:00,
2013-04-30 20:42:00,28.0,24.0,-100.00,NNE,15,1.0,2.0,84,0.00,,,0.02,,2013-05-01 04:42:00,
2013-04-30 20:52:00,28.0,24.0,-100.00,North,10,2.0,3.0,85,0.00,,,0.02,,2013-05-01 04:52:00,
2013-04-30 21:02:00,28.0,24.0,-100.00,North,10,2.0,3.0,85,0.00,,,0.02,,2013-05-01 05:02:00,
2013-04-30 21:11:00,28.0,24.0,-100.00,North,10,2.0,3.0,85,0.00,,,0.02,,2013-05-01 05:11:00,
2013-04-30 21:21:00,27.0,24.0,-100.00,North,0,2.0,3.0,86,0.00,,,0.02,,2013-05-01 05:21:00,
2013-04-30 21:32:00,27.0,24.0,-100.00,North,0,2.0,3.0,86,0.00,,,0.02,,2013-05-01 05:32:00,
2013-04-30 21:41:00,27.0,24.0,-100.00,North,0,2.0,3.0,86,0.00,,,0.02,,2013-05-01 05:41:00,
2013-04-30 21:52:00,27.0,24.0,-100.00,ENE,60,4.0,6.0,89,0.00,,,0.02,,2013-05-01 05:52:00,
2013-04-30 22:02:00,27.0,24.0,-100.00,ENE,60,4.0,6.0,89,0.00,,,0.02,,2013-05-01 06:02:00,
2013-04-30 22:11:00,27.0,24.0,-100.00,ENE,60,4.0,6.0,89,0.00,,,0.02,,2013-05-01 06:11:00,
2013-04-30 22:22:00,26.0,24.0,-100.00,NE,45,6.0,7.0,91,0.00,,,0.02,,2013-05-01 06:22:00,
2013-04-30 22:32:00,26.0,24.0,-100.00,NE,45,6.0,7.0,91,0.00,,,0.02,,2013-05-01 06:32:00,
2013-04-30 22:42:00,26.0,24.0,-100.00,NE,45,6.0,7.0,91,0.00,,,0.02,,2013-05-01 06:42:00,
2013-04-30 22:51:00,25.0,24.0,-100.00,NE,45,5.0,9.0,92,0.00,,,0.02,,2013-05-01 06:51:00,
2013-04-30 23:01:00,25.0,24.0,-100.00,NE,45,5.0,9.0,92,0.00,,,0.02,,2013-05-01 07:01:00,
2013-04-30 23:11:00,25.0,24.0,-100.00,NE,45,5.0,9.0,92,0.00,,,0.02,,2013-05-01 07:11:00,
2013-04-30 23:21:00,25.0,23.0,-100.00,NE,35,6.0,10.0,93,0.00,,,0.02,,2013-05-01 07:21:00,
2013-04-30 23:32:00,25.0,23.0,-100.00,NE,35,6.0,10.0,93,0.00,,,0.02,,2013-05-01 07:32:00,
2013-04-30 23:41:00,25.0,23.0,-100.00,NE,35,6.0,10.0,93,0.00,,,0.02,,2013-05-01 07:41:00,
2013-04-30 23:52:00,24.0,23.0,-100.00,NNE,30,8.0,12.0,93,0.00,,,0.02,,2013-05-01 07:52:00,